Погода в Глазуновской

Россия / Волгоградская область     49°48′36″N   42°50′32″E
темп.,
°C
ветер,
м/с
пор.,
м/с
влажн.,
%
обл.,
%
осадки,
мм/ч
давл.,
гПа
погр.,
м
17 мая, пн
пн1700:00+19вюв474978 0.0 101190
03:00+18вюв4750100 0.0 101193
06:00+17в4125556 0.0 1011207
09:00+24вюв7113870 0.0 1011498
12:00+29вюв81429100 0.0 10102174
15:00+29юв8122816 0.0 10092371
18:00+26вюв4942100 0.0 1008183
21:00+20в5134773 0.0 1009196
18 мая, вт
вт1800:00+18вюв47470 0.0 100989
03:00+16в46479 0.0 100880
06:00+16в413527 0.0 1008245
09:00+21юв584698 0.0 1008419
12:00+26юв5633100 0.0 10081172
15:00+26ю5735100 0.0 10081244
18:00+20зюз5779100 0.0 1009335
21:00+17сз248795 0.1 1010118
19 мая, ср
ср1900:00+15з229294 0.0 101017
03:00+15зсз228874 0.1 100924
06:00+16зсз23835 0.1 1008118
09:00+21з22628 0.3 1008765
12:00+24юз235190 0.0 10081514
15:00+25ююз444049 0.0 10072328
18:00+17юз81073100 0.0 1009704
21:00+13зюз359168 0.0 1011164
20 мая, чт
чт2000:00+14ю3690100 0.0 1011247
03:00+12ююз38955 0.1 1011211
06:00+13ююз510883 0.0 1011416
09:00+17ююз797291 0.2 10111107
12:00+19ююз8106499 0.8 10121505
15:00+20юз795896 1.3 10111740
18:00+18юз610675 0.3 10121228
21:00+14юз488019 0.3 1013142
21 мая, пт
пт2100:00+13ююз2284100 0.0 101415
03:00+12ю228581 0.0 101521
06:00+14ююв368060 0.0 1015170
09:00+20ю575970 0.0 1015859
12:00+24ююв574453 0.0 10141624
15:00+24ю484894 0.0 1014514
18:00+23зюз1155100 0.0 101477
21:00+19всв3362100 0.0 101426